W1MJC Weather Reports


time (UTC)temp
F
wind
direction
speed
knots
gust
knots
rain 1hr
in
rain 24hr
in
rain mn
in
humidity
%
barometer
mb
20260506144521 50 335 3.5 7.0 0.00 0.00 0.00 64 1009.8
20260506143519 48 327 3.5 5.2 0.00 0.00 0.00 66 1009.7
20260506142517 47 294 2.6 4.3 0.00 0.00 0.00 67 1009.7
20260506141516 48 18 5.2 7.0 0.00 0.00 0.00 65 1009.5
20260506140532 49 35 5.2 8.7 0.00 0.00 0.00 64 1009.3
20260506135518 47 337 4.3 5.2 0.00 0.00 0.00 68 1009.2
20260506134522 48 26 4.3 6.1 0.00 0.00 0.00 68 1009.2
20260506133547 48 12 4.3 7.0 0.00 0.00 0.00 69 1009.2
20260506132531 47 41 6.1 8.7 0.00 0.00 0.00 71 1009.1
20260506131517 45 311 4.3 7.0 0.00 0.00 0.00 73 1008.9
20260506130541 46 286 2.6 4.3 0.00 0.00 0.00 73 1008.8
20260506125525 46 337 3.5 5.2 0.00 0.00 0.00 72 1008.8
20260506124529 45 317 3.5 5.2 0.00 0.00 0.00 70 1008.7
20260506123516 45 285 4.3 6.1 0.00 0.00 0.00 68 1008.5
20260506122520 45 292 3.5 5.2 0.00 0.00 0.00 67 1008.4
20260506121524 45 281 2.6 4.3 0.00 0.00 0.00 67 1008.3
20260506120528 45 281 1.7 3.5 0.00 0.00 0.00 68 1008.1
20260506115532 44 272 2.6 3.5 0.00 0.00 0.00 69 1007.8
20260506114518 43 270 1.7 3.5 0.00 0.00 0.00 70 1007.8
20260506113523 43 262 0.9 1.7 0.00 0.00 0.00 71 1007.8
20260506112527 43 275 0.9 2.6 0.00 0.00 0.00 72 1007.6
20260506111531 41 270 0.9 1.7 0.00 0.00 0.00 75 1007.2
20260506110517 39 0.0 0.0 0.00 0.00 0.00 79 1007.5
20260506105521 39 0.0 0.0 0.00 0.00 0.00 81 1007.2
20260506104525 38 0.0 0.0 0.00 0.00 0.00 87 1007.2
20260506103530 38 0.0 0.0 0.00 0.00 0.00 82 1007.1
20260506102516 38 0.0 0.0 0.00 0.00 0.00 84 1007.0
20260506101520 39 0.0 0.0 0.00 0.00 0.00 84 1007.2
20260506100524 40 0.0 0.0 0.00 0.00 0.00 77 1006.8
20260506095522 40 0.0 0.0 0.00 0.00 0.00 76 1006.6
20260506094520 41 0.0 0.0 0.00 0.00 0.00 74 1006.6
20260506093519 42 0.0 0.0 0.00 0.00 0.00 71 1006.5
20260506092516 43 0.0 0.0 0.00 0.00 0.00 69 1006.2
20260506091527 43 270 0.9 1.7 0.00 0.00 0.00 66 1006.1
20260506090533 44 0.0 0.0 0.00 0.00 0.00 67 1006.2
20260506085517 44 268 1.7 3.5 0.00 0.00 0.00 67 1006.0
20260506084521 44 284 1.7 2.6 0.00 0.00 0.00 67 1006.1
20260506083525 44 282 1.7 2.6 0.00 0.00 0.00 66 1006.1
20260506082529 44 287 1.7 2.6 0.00 0.00 0.00 66 1006.2
20260506081515 44 278 1.7 2.6 0.00 0.00 0.00 65 1006.3
20260506080520 44 277 0.9 2.6 0.00 0.00 0.00 66 1006.3
20260506072519 45 0.0 0.0 0.00 0.00 0.00 66 1006.3
20260506071523 45 270 0.9 2.6 0.00 0.00 0.00 63 1006.1
20260506070528 46 270 0.9 2.6 0.00 0.00 0.00 63 1006.1
20260506061530 46 248 0.0 1.7 0.00 0.00 0.00 65 1006.3
20260506060516 46 0.0 0.0 0.00 0.00 0.00 66 1006.4
20260506050524 46 0.0 0.0 0.00 0.00 0.00 67 1005.9
20260506044526 46 0.0 0.0 0.00 0.00 0.00 69 1006.1
20260506043518 46 270 0.0 1.7 0.00 0.00 0.00 69 1006.1
20260506042523 46 0.0 0.0 0.00 0.00 0.00 70 1006.1
20260506041521 46 0.0 0.0 0.00 0.00 0.00 70 1005.8
20260506040519 46 0.0 0.0 0.00 0.00 0.00 71 1005.9
20260506035517 46 0.0 0.0 0.00 0.00 0.00 71 1005.9
20260506034516 46 0.0 0.0 0.00 0.00 0.00 72 1005.8
20260506033525 46 0.0 0.0 0.00 0.00 0.00 72 1005.8
20260506032529 46 0.0 0.0 0.00 0.00 0.00 72 1006.0
20260506031516 46 0.0 0.0 0.00 0.00 0.00 71 1005.8
20260506030520 46 0.0 0.0 0.00 0.00 0.00 71 1006.0
20260506025524 46 0.0 0.0 0.00 0.00 0.00 69 1005.8
20260506024529 46 0.0 0.0 0.00 0.00 0.00 70 1005.7
20260506023533 46 0.0 0.0 0.00 0.00 0.00 71 1005.7
20260506022519 47 0.0 0.0 0.00 0.00 0.00 69 1005.7
20260506021523 46 0.0 0.0 0.00 0.00 0.00 70 1005.6
20260506020527 46 0.0 0.0 0.00 0.00 0.00 71 1005.6
20260506015531 47 0.0 0.0 0.00 0.00 0.00 71 1005.6